Council Bluffs, IA

3:05 AM CST on December 12, 2017 (GMT -0600)
Council Bluffs Municipal

Weather History for KCBF - March, 2014

Change the Weather History Date:

Wednesday, March 12, 2014

  Actual Average Record
Temperature  
Mean Temperature 40 °F -  
Max Temperature 51 °F 42 °F 75 °F (2015)
Min Temperature 28 °F 25 °F -7 °F (1998)
Degree Days  
Heating Degree Days 26    
Moisture  
Dew Point 29 °F    
Average Humidity 77    
Maximum Humidity 100    
Minimum Humidity 38    
Precipitation  
Precipitation 0.00 in - - ()
Sea Level Pressure  
Sea Level Pressure 30.10 in    
Wind  
Wind Speed 10 mph (NW)    
Max Wind Speed 20 mph    
Max Gust Speed 26 mph    
Visibility 10 miles    
Events      
Averages and records for this station are not official NWS values.
T = Trace of Precipitation, MM = Missing Value Source: NWS Daily Summary

Daily Weather History Graph

Daily Weather History Graph

Search for Another Location

Airport or City:

Trip Planner

Search our weather history database for the weather conditions in past years. The results will help you decide how hot, cold, wet, or windy it might be!

Date:

Astronomy

Mar. 12, 2014 Rise Set
Actual Time 7:39 AM CDT 7:26 PM CDT
Civil Twilight 7:12 AM CDT 7:53 PM CDT
Nautical Twilight 6:40 AM CDT 8:25 PM CDT
Astronomical Twilight 6:07 AM CDT 8:58 PM CDT
Moon 3:56 PM CDT 5:13 AM CDT
Length of Visible Light 12h 41m
Length of Day
11h 46m
Waxing Gibbous, 85% of the Moon is Illuminated
Mar 12
Waxing Gibbous
Mar 16
Full
Mar 23
Last Quarter
Mar 30
New
Apr 7
First Quarter

Hourly Weather History & Observations

Time (CDT) Temp. Windchill Dew Point Humidity Pressure Visibility Wind Dir Wind Speed Gust Speed Precip Events Conditions
12:15 AM 33.8 °F 23.5 °F 32.0 °F 93% 30.05 in 10.0 mi NNW 16.1 mph 23.0 mph N/A   Clear
12:35 AM 33.8 °F 23.2 °F 32.0 °F 93% 30.06 in 10.0 mi NNW 17.3 mph 25.3 mph N/A   Clear
12:55 AM 33.8 °F 24.3 °F 30.2 °F 87% 30.07 in 10.0 mi NNW 13.8 mph 21.9 mph N/A   Clear
1:15 AM 32.0 °F 22.1 °F 28.4 °F 87% 30.08 in 10.0 mi NNW 13.8 mph 19.6 mph N/A   Clear
1:35 AM 32.0 °F 23.6 °F 28.4 °F 87% 30.09 in 10.0 mi NNW 10.4 mph 17.3 mph N/A   Clear
1:55 AM 32.0 °F 22.1 °F 28.4 °F 87% 30.09 in 10.0 mi NNW 13.8 mph - N/A   Clear
2:15 AM 32.0 °F 23.6 °F 26.6 °F 80% 30.10 in 10.0 mi NNW 10.4 mph 17.3 mph N/A   Clear
2:35 AM 30.2 °F 21.3 °F 26.6 °F 86% 30.10 in 10.0 mi NNW 10.4 mph 16.1 mph N/A   Clear
2:55 AM 30.2 °F 21.3 °F 26.6 °F 86% 30.11 in 10.0 mi NNW 10.4 mph - N/A   Clear
3:15 AM 30.2 °F 21.9 °F 26.6 °F 86% 30.11 in 10.0 mi NW 9.2 mph - N/A   Clear
3:35 AM 30.2 °F 20.8 °F 26.6 °F 86% 30.10 in 10.0 mi NNW 11.5 mph 18.4 mph N/A   Partly Cloudy
3:55 AM 28.4 °F 20.4 °F 26.6 °F 93% 30.11 in 10.0 mi NW 8.1 mph - N/A   Partly Cloudy
4:15 AM 28.4 °F 21.2 °F 26.6 °F 93% 30.11 in 10.0 mi NW 6.9 mph 12.7 mph N/A   Partly Cloudy
4:35 AM 28.4 °F 20.4 °F 26.6 °F 93% 30.11 in 10.0 mi NW 8.1 mph - N/A   Mostly Cloudy
4:55 AM 28.4 °F 19.7 °F 28.4 °F 100% 30.11 in 10.0 mi NW 9.2 mph - N/A   Overcast
5:15 AM 28.4 °F 19.7 °F 28.4 °F 100% 30.12 in 10.0 mi NNW 9.2 mph - N/A   Overcast
5:35 AM 30.2 °F 21.3 °F 28.4 °F 93% 30.13 in 10.0 mi NNW 10.4 mph - N/A   Overcast
5:55 AM 30.2 °F 21.3 °F 28.4 °F 93% 30.13 in 10.0 mi NNW 10.4 mph - N/A   Overcast
6:15 AM 28.4 °F 19.7 °F 28.4 °F 100% 30.14 in 10.0 mi NNW 9.2 mph - N/A   Overcast
6:35 AM 28.4 °F 20.4 °F 26.6 °F 93% 30.14 in 10.0 mi NNW 8.1 mph - N/A   Overcast
6:55 AM 28.4 °F 21.2 °F 28.4 °F 100% 30.14 in 10.0 mi NNW 6.9 mph - N/A   Overcast
7:15 AM 28.4 °F 21.2 °F 28.4 °F 100% 30.14 in 10.0 mi NW 6.9 mph - N/A   Overcast
7:35 AM 28.4 °F 23.3 °F 28.4 °F 100% 30.13 in 10.0 mi NW 4.6 mph - N/A   Overcast
7:55 AM 28.4 °F 23.3 °F 28.4 °F 100% 30.14 in 10.0 mi NNW 4.6 mph - N/A   Overcast
8:15 AM 28.4 °F 23.3 °F 28.4 °F 100% 30.14 in 10.0 mi NNW 4.6 mph - N/A   Overcast
8:35 AM 30.2 °F 24.3 °F 28.4 °F 93% 30.16 in 10.0 mi NW 5.8 mph - N/A   Overcast
8:55 AM 30.2 °F 22.6 °F 30.2 °F 100% 30.16 in 10.0 mi WNW 8.1 mph - N/A   Overcast
9:15 AM 30.2 °F 23.4 °F 30.2 °F 100% 30.16 in 10.0 mi WNW 6.9 mph - N/A   Overcast
9:35 AM 32.0 °F 25.6 °F 30.2 °F 93% 30.16 in 10.0 mi WNW 6.9 mph - N/A   Overcast
9:55 AM 32.0 °F 24.8 °F 28.4 °F 87% 30.17 in 10.0 mi NW 8.1 mph - N/A   Mostly Cloudy
10:15 AM 32.0 °F 27.5 °F 28.4 °F 87% 30.16 in 10.0 mi WNW 4.6 mph - N/A   Partly Cloudy
10:35 AM 32.0 °F 26.4 °F 30.2 °F 93% 30.17 in 10.0 mi West 5.8 mph 11.5 mph N/A   Partly Cloudy
10:55 AM 33.8 °F 29.6 °F 30.2 °F 87% 30.16 in 10.0 mi Variable 4.6 mph - N/A   Partly Cloudy
11:15 AM 33.8 °F 28.6 °F 30.2 °F 87% 30.16 in 10.0 mi NW 5.8 mph - N/A   Partly Cloudy
11:35 AM 35.6 °F 32.8 °F 30.2 °F 81% 30.15 in 10.0 mi Variable 3.5 mph - N/A   Scattered Clouds
11:55 AM 37.4 °F 33.8 °F 30.2 °F 75% 30.15 in 10.0 mi Variable 4.6 mph - N/A   Scattered Clouds
12:15 PM 39.2 °F 35.9 °F 30.2 °F 70% 30.15 in 10.0 mi Variable 4.6 mph - N/A   Scattered Clouds
12:35 PM 41.0 °F 36.4 °F 30.2 °F 65% 30.14 in 10.0 mi West 6.9 mph - N/A   Partly Cloudy
1:15 PM 42.8 °F 38.6 °F 32.0 °F 66% 30.13 in 10.0 mi WNW 6.9 mph - N/A   Mostly Cloudy
1:35 PM 44.6 °F 40.7 °F 32.0 °F 61% 30.12 in 10.0 mi West 6.9 mph - N/A   Mostly Cloudy
1:55 PM 44.6 °F 39.7 °F 32.0 °F 61% 30.12 in 10.0 mi West 9.2 mph 15.0 mph N/A   Scattered Clouds
2:15 PM 46.4 °F 41.5 °F 32.0 °F 57% 30.10 in 10.0 mi West 10.4 mph 19.6 mph N/A   Mostly Cloudy
2:35 PM 44.6 °F 40.2 °F 32.0 °F 61% 30.10 in 10.0 mi WNW 8.1 mph 17.3 mph N/A   Mostly Cloudy
2:55 PM 46.4 °F 40.1 °F 32.0 °F 57% 30.09 in 10.0 mi WNW 15.0 mph - N/A   Mostly Cloudy
3:15 PM 46.4 °F 39.8 °F 30.2 °F 53% 30.08 in 10.0 mi NNW 16.1 mph 23.0 mph N/A   Mostly Cloudy
3:35 PM 48.2 °F - 30.2 °F 50% 30.07 in 10.0 mi NNW 12.7 mph 21.9 mph N/A   Scattered Clouds
3:55 PM 50.0 °F - 30.2 °F 47% 30.07 in 10.0 mi NW 16.1 mph - N/A   Partly Cloudy
4:15 PM 48.2 °F - 30.2 °F 50% 30.07 in 10.0 mi NNW 10.4 mph - N/A   Partly Cloudy
4:35 PM 50.0 °F - 30.2 °F 47% 30.07 in 10.0 mi NNW 9.2 mph 20.7 mph N/A   Scattered Clouds
4:55 PM 50.0 °F - 28.4 °F 43% 30.07 in 10.0 mi NW 16.1 mph 26.5 mph N/A   Scattered Clouds
5:15 PM 51.8 °F - 26.6 °F 38% 30.06 in 10.0 mi NW 11.5 mph 21.9 mph N/A   Scattered Clouds
5:35 PM 50.0 °F - 26.6 °F 40% 30.06 in 10.0 mi NW 19.6 mph 25.3 mph N/A   Partly Cloudy
5:55 PM 50.0 °F - 26.6 °F 40% 30.06 in 10.0 mi NNW 13.8 mph 20.7 mph N/A   Clear
6:15 PM 50.0 °F - 26.6 °F 40% 30.06 in 10.0 mi NNW 10.4 mph 17.3 mph N/A   Partly Cloudy
6:35 PM 50.0 °F - 26.6 °F 40% 30.05 in 10.0 mi NNW 6.9 mph - N/A   Clear
6:55 PM 48.2 °F - 26.6 °F 43% 30.05 in 10.0 mi NNW 6.9 mph - N/A   Clear
7:15 PM 46.4 °F 44.3 °F 26.6 °F 46% 30.05 in 10.0 mi NNW 4.6 mph - N/A   Clear
7:35 PM 46.4 °F - 26.6 °F 46% 30.05 in 10.0 mi Calm Calm - N/A   Clear
7:55 PM 44.6 °F - 26.6 °F 49% 30.05 in 10.0 mi Calm Calm - N/A   Clear
8:15 PM 41.0 °F 35.8 °F 30.2 °F 65% 30.06 in 10.0 mi East 8.1 mph - N/A   Clear
8:35 PM 39.2 °F 33.6 °F 32.0 °F 75% 30.06 in 10.0 mi ESE 8.1 mph - N/A   Clear
8:55 PM 37.4 °F 30.8 °F 32.0 °F 81% 30.06 in 10.0 mi SE 9.2 mph - N/A   Clear
9:15 PM 35.6 °F 28.6 °F 32.0 °F 87% 30.06 in 10.0 mi SE 9.2 mph - N/A   Clear
9:35 PM 35.6 °F 28.0 °F 32.0 °F 87% 30.07 in 10.0 mi SE 10.4 mph - N/A   Clear
9:55 PM 33.8 °F 26.4 °F 30.2 °F 87% 30.06 in 10.0 mi SE 9.2 mph - N/A   Clear
10:15 PM 33.8 °F 27.0 °F 30.2 °F 87% 30.05 in 10.0 mi SSE 8.1 mph - N/A   Clear
10:35 PM 33.8 °F 26.4 °F 30.2 °F 87% 30.05 in 10.0 mi SSE 9.2 mph - N/A   Clear
10:55 PM 33.8 °F 25.3 °F 30.2 °F 87% 30.04 in 10.0 mi South 11.5 mph - N/A   Clear
11:15 PM 33.8 °F 25.8 °F 30.2 °F 87% 30.04 in 10.0 mi South 10.4 mph - N/A   Scattered Clouds
11:35 PM 33.8 °F 25.8 °F 30.2 °F 87% 30.04 in 10.0 mi SSE 10.4 mph - N/A   Mostly Cloudy
11:55 PM 33.8 °F 26.4 °F 30.2 °F 87% 30.04 in 10.0 mi SSE 9.2 mph - N/A   Mostly Cloudy